Weather reports worldwide

Advertisment
Chalons-Vatry Airport, France (7166): temperature & dewpoint: 29.06.2020 00:00:00 - 05.07.2020 00:00:00 (CEST)Chalons-Vatry Airport, France (7166): wind speed & gusts: 29.06.2020 00:00:00 - 05.07.2020 00:00:00 (CEST)Chalons-Vatry Airport, France (7166): wind direction: 29.06.2020 00:00:00 - 05.07.2020 00:00:00 (CEST)Chalons-Vatry Airport, France (7166): reduced air pressure: 29.06.2020 00:00:00 - 05.07.2020 00:00:00 (CEST)Chalons-Vatry Airport, France (7166): visibility: 29.06.2020 00:00:00 - 05.07.2020 00:00:00 (CEST)Chalons-Vatry Airport, France (7166): precipitation: 29.06.2020 00:00:00 - 05.07.2020 00:00:00 (CEST)
Date & Time tt [°C] td [°C] ff [km/h] ff [kn] fx [km/h] fx [kn] dd ppp [hPa] vv [km] rr [mm]
05.07.2020 00:00:00 20,5 15,7 24 13 38 20 SW 1018,2 60 0,0
04.07.2020 23:00:00 20,9 15,4 21 11 40 22 SW 1018,5 10 0,0
04.07.2020 22:00:00 21,4 15,2 29 15 50 27 WSW 1018,2 19 0,0
04.07.2020 21:00:00 22,1 15,4 28 15 43 23 SW 1017,8 10 0,0
04.07.2020 20:00:00 22,5 15,1 26 14 44 24 SW 1018,0 51 0,0
04.07.2020 19:00:00 22,6 14,9 32 17 47 26 SW 1018,3 49 0,0
04.07.2020 18:00:00 23,5 15,3 31 17 48 26 WSW 1018,4 58 0,0
04.07.2020 17:00:00 23,1 14,6 29 16 54 29 SW 1018,6 49 0,0
04.07.2020 16:00:00 24,5 14,3 29 15 50 27 SW 1018,4 33 0,0
04.07.2020 15:00:00 23,7 13,6 34 19 51 28 SW 1018,6 20 0,0
04.07.2020 14:00:00 22,2 11,3 34 18 54 29 SW 1019,3 10 0,0
04.07.2020 13:00:00 21,2 11,8 29 16 49 26 SW 1019,6 10 0,0
04.07.2020 12:00:00 20,1 10,2 30 16 47 25 SW 1019,7 26 0,0
04.07.2020 11:00:00 19,7 11,5 31 17 52 28 SW 1020,1 10 0,0
04.07.2020 10:00:00 17,3 10,9 29 16 50 27 SW 1020,4 10 0,0
04.07.2020 09:00:00 15,6 11,2 27 14 46 25 SW 1020,6 35 0,0
04.07.2020 08:00:00 14,4 11,4 21 11 29 16 SW 1020,6 10 0,0
04.07.2020 07:00:00 11,7 10,1 16 8 23 12 SW 1020,8 41 0,0
04.07.2020 06:00:00 10,0 8,6 14 8 19 11 SSW 1020,5 48 0,0
04.07.2020 05:00:00 9,8 8,6 15 8 18 10 SSW 1020,4 51 0,0
04.07.2020 04:00:00 9,8 8,2 11 6 15 8 SSW 1020,7 56 0,0
04.07.2020 03:00:00 10,5 8,8 12 6 18 10 SSW 1021,0 56 0,0
04.07.2020 02:00:00 10,9 8,6 13 7 20 11 SSW 1021,1 59 0,0
04.07.2020 01:00:00 12,8 9,1 9 5 11 6 S 1020,9 39 0,0
04.07.2020 00:00:00 13,9 9,5 8 4 10 5 SSW 1020,8 10 0,0
03.07.2020 23:00:00 14,1 10,1 9 5 15 8 SW 1020,8 10 0,0
03.07.2020 22:00:00 17,8 9,9 11 6 15 8 W 1019,8 6 0,0
03.07.2020 21:00:00 19,4 9,8 14 7 29 16 W 1019,7 60 0,0
03.07.2020 20:00:00 21,3 9,8 18 10 31 17 W 1019,3 41 0,0
03.07.2020 19:00:00 21,2 10,1 16 9 35 19 W 1019,2 51 0,0
03.07.2020 18:00:00 22,1 10,3 18 10 38 21 W 1019,6 10 0,0
03.07.2020 17:00:00 22,8 9,9 23 12 39 21 W 1019,7 36 0,0
03.07.2020 16:00:00 22,1 10,9 22 12 41 22 W 1020,0 60 0,0
03.07.2020 15:00:00 21,9 11,0 18 10 36 19 W 1020,0 55 0,0
03.07.2020 14:00:00 20,4 9,6 19 10 42 23 W 1020,6 54 0,0
03.07.2020 13:00:00 20,9 10,1 22 12 34 18 W 1020,6 10 0,0
03.07.2020 12:00:00 20,0 11,0 18 10 35 19 W 1020,5 10 0,0
03.07.2020 11:00:00 18,8 11,8 18 10 29 16 W 1020,6 38 0,0
03.07.2020 10:00:00 17,4 11,4 15 8 24 13 WSW 1020,8 10 0,0
03.07.2020 09:00:00 16,0 11,6 9 5 18 10 WSW 1020,7 10 0,0
03.07.2020 08:00:00 14,6 11,6 8 4 11 6 WSW 1020,6 10 0,0
03.07.2020 07:00:00 11,6 10,2 5 3 8 5 SW 1020,3 10 0,0
03.07.2020 06:00:00 10,5 9,6 4 2 9 5 - 1020,1 10 0,0
03.07.2020 05:00:00 11,6 9,8 5 3 14 7 WNW 1019,5 10 0,0
03.07.2020 04:00:00 12,8 10,3 11 6 16 9 WNW 1019,4 10 0,0
03.07.2020 03:00:00 13,2 10,2 11 6 16 9 W 1019,1 10 0,0
03.07.2020 02:00:00 11,4 9,5 11 6 13 7 WSW 1019,0 60 0,0
03.07.2020 01:00:00 12,0 9,6 8 4 16 8 SW 1018,7 10 0,0
03.07.2020 00:00:00 15,2 10,2 14 8 18 10 W 1018,1 60 0,0
02.07.2020 23:00:00 15,1 10,5 16 9 22 12 W 1017,9 60 0,0
02.07.2020 22:00:00 17,6 11,2 14 8 29 16 NW 1016,9 37 0,0
02.07.2020 21:00:00 18,4 11,5 22 12 34 18 WNW 1016,1 10 0,0
02.07.2020 20:00:00 20,0 11,2 16 9 36 19 W 1015,5 10 0,0
02.07.2020 19:00:00 21,2 10,4 25 13 37 20 W 1015,1 54 0,0
02.07.2020 18:00:00 20,0 11,5 23 12 34 19 WSW 1015,1 46 0,0
02.07.2020 17:00:00 20,2 11,9 22 12 40 22 W 1015,1 10 0,0
02.07.2020 16:00:00 20,5 12,2 23 13 48 26 W 1014,9 35 0,0
02.07.2020 15:00:00 20,2 12,4 28 15 42 23 W 1014,6 38 0,0
02.07.2020 14:00:00 19,6 14,0 26 14 44 24 WNW 1014,4 10 0,0
02.07.2020 13:00:00 19,3 13,2 26 14 42 23 WSW 1014,1 10 0,0
02.07.2020 12:00:00 20,2 13,9 24 13 41 22 SW 1013,7 45 0,0
02.07.2020 11:00:00 18,6 13,2 26 14 39 21 WSW 1013,7 49 0,0
02.07.2020 10:00:00 17,9 13,6 30 16 44 24 WSW 1013,6 48 0,0
02.07.2020 09:00:00 17,6 13,3 29 16 44 24 WSW 1013,3 10 0,0
02.07.2020 08:00:00 17,3 13,4 26 14 38 20 WSW 1013,0 40 0,0
02.07.2020 07:00:00 16,1 13,6 18 10 34 18 SW 1012,7 10 0,0
02.07.2020 06:00:00 15,3 13,5 19 10 32 17 SW 1012,5 58 0,0
02.07.2020 05:00:00 15,4 13,6 18 10 31 17 SW 1012,3 60 0,0
02.07.2020 04:00:00 16,4 14,9 17 9 29 15 SW 1012,1 60 0,0
02.07.2020 03:00:00 17,1 14,9 16 9 28 15 WSW 1012,0 10 0,0
02.07.2020 02:00:00 17,1 16,0 16 9 26 14 SW 1011,9 60 0,0
02.07.2020 01:00:00 17,9 16,4 15 8 24 13 SW 1011,8 10 0,0
02.07.2020 00:00:00 17,5 16,4 15 8 29 16 SW 1011,6 10 0,0
01.07.2020 23:00:00 18,2 16,7 21 11 37 20 SW 1011,3 33 0,0
01.07.2020 22:00:00 19,3 16,7 19 10 34 18 WSW 1011,0 20 0,0
01.07.2020 21:00:00 19,9 16,5 24 13 39 21 W 1010,5 10 0,0
01.07.2020 20:00:00 21,7 16,0 27 15 44 24 W 1010,0 60 0,0
01.07.2020 19:00:00 23,3 15,6 28 15 47 25 WSW 1009,8 10 0,0
01.07.2020 18:00:00 23,7 15,5 29 16 46 25 WSW 1009,7 45 0,0
01.07.2020 17:00:00 23,9 15,4 29 16 50 27 WSW 1009,7 56 0,0
01.07.2020 16:00:00 23,8 16,1 26 14 41 22 SW 1009,8 10 0,0
01.07.2020 15:00:00 22,7 15,5 23 12 42 23 WSW 1010,0 55 0,0
01.07.2020 14:00:00 22,9 15,5 26 14 39 21 WSW 1010,0 10 0,0
01.07.2020 13:00:00 21,4 16,1 25 13 38 21 WSW 1010,3 59 0,0
01.07.2020 12:00:00 20,9 16,1 22 12 34 18 SW 1010,1 60 0,0
01.07.2020 11:00:00 20,1 15,7 24 13 35 19 SW 1010,2 60 0,0
01.07.2020 10:00:00 19,3 15,8 21 11 40 21 SW 1010,2 55 0,0
01.07.2020 09:00:00 19,0 16,0 21 11 34 18 SSW 1010,2 59 0,0
01.07.2020 08:00:00 16,3 15,0 14 7 22 12 S 1010,5 50 0,0
01.07.2020 07:00:00 14,8 14,2 13 7 21 11 SSW 1010,7 33 0,0
01.07.2020 06:00:00 13,3 13,0 13 7 19 11 S 1010,5 10 0,0
01.07.2020 05:00:00 13,7 13,1 14 7 20 11 S 1010,7 25 0,0
01.07.2020 04:00:00 14,4 13,4 16 8 27 14 S 1010,8 37 0,0
01.07.2020 03:00:00 14,7 13,6 16 9 23 12 SSW 1011,1 45 0,0
01.07.2020 02:00:00 14,4 13,1 13 7 21 11 SSW 1011,6 10 0,0
01.07.2020 01:00:00 15,3 13,5 13 7 26 14 SSW 1012,0 57 0,0
01.07.2020 00:00:00 15,9 13,6 16 9 26 14 SSW 1012,0 10 0,0
30.06.2020 23:00:00 16,2 13,9 14 7 19 11 S 1012,1 60 0,0
30.06.2020 22:00:00 18,8 14,1 16 9 26 14 SW 1011,9 10 0,0
30.06.2020 21:00:00 20,0 13,9 16 9 31 17 SW 1012,0 60 0,0
30.06.2020 20:00:00 20,6 13,8 18 10 35 19 SW 1012,0 10 0,0
30.06.2020 19:00:00 20,9 13,3 23 12 37 20 WSW 1012,2 53 0,0
30.06.2020 18:00:00 21,3 13,5 26 14 39 21 WSW 1012,4 60 0,0
30.06.2020 17:00:00 21,0 12,9 22 12 44 24 WSW 1012,8 60 0,0
30.06.2020 16:00:00 20,6 12,8 26 14 41 22 SSW 1013,0 10 0,0
30.06.2020 15:00:00 20,2 12,7 25 13 45 24 SW 1013,4 55 0,0
30.06.2020 14:00:00 20,1 12,3 25 14 38 21 SW 1013,6 55 0,0
30.06.2020 13:00:00 19,8 12,1 24 13 39 21 SW 1013,7 10 0,0
30.06.2020 12:00:00 19,5 11,0 27 14 44 24 WSW 1013,7 41 0,0
30.06.2020 11:00:00 18,6 11,4 25 13 40 22 SW 1014,0 41 0,0
30.06.2020 10:00:00 17,2 11,5 25 14 37 20 SW 1014,2 34 0,0
30.06.2020 09:00:00 16,5 11,8 22 12 36 19 WSW 1014,4 35 0,0
30.06.2020 08:00:00 15,4 11,4 18 10 27 15 SW 1014,3 10 0,0
30.06.2020 07:00:00 13,6 11,5 7 4 16 8 SW 1014,4 59 0,0
30.06.2020 06:00:00 12,8 10,9 10 5 16 9 SSW 1014,5 60 0,0
30.06.2020 05:00:00 12,3 10,7 11 6 15 8 SSW 1014,4 59 0,0
30.06.2020 04:00:00 10,7 9,6 11 6 17 9 SSW 1014,9 10 0,0
30.06.2020 03:00:00 9,9 8,7 16 8 18 10 SW 1014,9 60 0,0
30.06.2020 02:00:00 10,5 8,8 13 7 18 10 SSW 1015,2 10 0,0
30.06.2020 01:00:00 11,4 9,1 15 8 18 10 SSW 1015,4 10 0,0
30.06.2020 00:00:00 12,8 9,6 11 6 14 8 SSW 1015,3 10 0,0
29.06.2020 23:00:00 13,5 9,2 11 6 16 9 SW 1015,3 10 0,0
29.06.2020 22:00:00 14,5 8,7 15 8 23 12 WSW 1014,8 2,5 0,0
29.06.2020 21:00:00 18,6 8,3 16 9 38 20 WSW 1014,4 39 0,0
29.06.2020 20:00:00 20,3 8,0 28 15 44 24 WSW 1014,4 10 0,0
29.06.2020 19:00:00 21,5 8,4 24 13 45 24 W 1014,2 40 0,0
29.06.2020 18:00:00 20,8 8,4 25 13 60 32 WSW 1014,7 38 0,0
29.06.2020 17:00:00 22,2 9,0 23 13 43 23 WSW 1014,6 22 0,0
29.06.2020 16:00:00 21,5 8,4 28 15 46 25 W 1015,1 10 0,0
29.06.2020 15:00:00 21,0 8,6 24 13 45 24 W 1015,3 10 0,0
29.06.2020 14:00:00 20,5 8,8 28 15 43 23 W 1015,7 10 0,0
29.06.2020 13:00:00 20,3 10,1 26 14 43 23 WSW 1015,8 41 0,0
29.06.2020 12:00:00 19,3 9,8 23 12 37 20 W 1016,0 44 0,0
29.06.2020 11:00:00 18,8 11,6 18 10 32 17 W 1015,5 47 0,0
29.06.2020 10:00:00 18,1 11,9 16 9 27 15 W 1015,4 10 0,0
29.06.2020 09:00:00 17,2 14,3 16 9 26 14 WNW 1015,2 10 0,0
29.06.2020 08:00:00 15,6 15,1 12 6 21 11 WSW 1015,0 37 0,0
29.06.2020 07:00:00 14,8 14,5 11 6 20 11 SW 1014,8 20 0,0
29.06.2020 06:00:00 14,5 14,5 13 7 21 11 SSW 1014,8 39 0,0
29.06.2020 05:00:00 13,6 13,4 10 5 18 10 S 1014,2 36 0,0
29.06.2020 04:00:00 13,9 13,7 13 7 22 12 SSW 1014,9 10 0,0
29.06.2020 03:00:00 13,9 13,7 16 8 22 12 SSW 1015,4 51 0,0
29.06.2020 02:00:00 14,0 13,7 13 7 24 13 SSW 1015,6 52 0,0
29.06.2020 01:00:00 14,1 13,6 16 9 26 14 SSW 1015,8 10 0,0
29.06.2020 00:00:00 13,9 13,1 16 9 27 15 SSW 1016,1 60 0,0

tt = temperature
td = dewpoint
ff = wind speed
fx = gusts
dd = wind direction
ppp = reduced air pressure
vv = visibility
rr = precipitation

Next stations